Weather History for OTBD - April, 2014

Change the Weather History Date:

Sunday, April 27, 2014

  Actual Average Record
Temperature  
Mean Temperature 92 °F -  
Max Temperature 99 °F 100 °F 105 °F (1999)
Min Temperature 85 °F 76 °F 69 °F (1997)
Cooling Degree Days 27    
Growing Degree Days 42 (Base 50)    
Moisture  
Dew Point 56 °F    
Average Humidity 33    
Maximum Humidity 70    
Minimum Humidity 9    
Precipitation  
Precipitation 0.00 in 0.01 in - ()
Sea Level Pressure  
Sea Level Pressure 29.81 in    
Wind  
Wind Speed 5 mph ()    
Max Wind Speed 13 mph    
Max Gust Speed -    
Visibility 9.1 miles    
Events      
Averages and records for this station are not official NWS values.
T = Trace of Precipitation, MM = Missing Value Source: Averaged Metar Reports

Daily Weather History Graph

Daily Weather History Graph

Search for Another Location

Airport or City:

Trip Planner

Search our weather history database for the weather conditions in past years. The results will help you decide how hot, cold, wet, or windy it might be!

Date:

Astronomy

Apr. 27, 2014 Rise Set
Actual Time 5:01 AM AST 6:02 PM AST
Civil Twilight 4:37 AM AST 6:26 PM AST
Nautical Twilight 4:08 AM AST 6:54 PM AST
Astronomical Twilight 3:40 AM AST 7:23 PM AST
Moon 3:33 AM AST (4/27) 4:21 PM AST (4/27)
Length of Visible Light 13h 48m
Length of Day
13h 01m
Waning Crescent, 4% of the Moon is Illuminated
Apr 27
Waning Crescent
Apr 29
New
May 7
First Quarter
May 14
Full
May 21
Last Quarter

Hourly Weather History & Observations

Time (AST) Temp. Heat Index Dew Point Humidity Pressure Visibility Wind Dir Wind Speed Gust Speed Precip Events Conditions
12:00 AM 88 °F - 53 °F 21% 29.82 in 9 mi SSW 3.5 mph - -  
12:00 AM 87.8 °F 85.7 °F 53.6 °F 31% 29.80 in - SSW 3.5 mph - N/A   Clear
1:00 AM 86.0 °F 84.5 °F 55.4 °F 35% 29.80 in - SW 5.8 mph - N/A   Clear
2:00 AM 86.0 °F 84.5 °F 55.4 °F 35% 29.77 in - SW 4.6 mph - N/A   Clear
3:00 AM 86 °F - 51 °F 20% 29.78 in 9 mi SW 4.6 mph - -   Clear
3:00 AM 86.0 °F - 51.8 °F 31% 29.77 in - SW 4.6 mph - N/A   Clear
3:30 AM 86.0 °F - 48.2 °F 27% 29.77 in - SW 4.6 mph - N/A   Clear
4:00 AM 86.0 °F - 50.0 °F 29% 29.77 in - SW 3.5 mph - N/A   Clear
4:30 AM 86.0 °F - 48.2 °F 27% 29.80 in - SW 4.6 mph - N/A   Clear
5:00 AM 86.0 °F - 46.4 °F 25% 29.80 in - SW 3.5 mph - N/A   Clear
5:30 AM 86.0 °F - 46.4 °F 25% 29.80 in - SW 3.5 mph - N/A   Clear
6:00 AM 87 °F - 44 °F 14% 29.81 in 9 mi SW 4.6 mph - -   Clear
6:00 AM 87.8 °F - 44.6 °F 22% 29.80 in - SW 4.6 mph - N/A   Clear
6:30 AM 89.6 °F - 44.6 °F 21% 29.80 in - Variable 1.2 mph - N/A   Clear
7:00 AM 93.2 °F - 41.0 °F 16% 29.83 in - SSW 3.5 mph - N/A   Clear
7:30 AM 93.2 °F - 41.0 °F 16% 29.83 in - South 3.5 mph - N/A   Clear
8:00 AM 93.2 °F 90.8 °F 53.6 °F 26% 29.83 in - ESE 3.5 mph - N/A   Clear
8:30 AM 95.0 °F 94.4 °F 59.0 °F 30% 29.86 in - East 4.6 mph - N/A   Clear
9:00 AM 95 °F - 61 °F 23% 29.87 in 9 mi ESE 8.1 mph - -   Clear
9:00 AM 95.0 °F 95.2 °F 60.8 °F 32% 29.86 in - ESE 8.1 mph - N/A   Clear
9:30 AM 95.0 °F 103.2 °F 71.6 °F 47% 29.86 in - East 9.2 mph - N/A   Clear
10:00 AM 95.0 °F - 51.8 °F 23% 29.86 in - East 9.2 mph - N/A   Clear
10:30 AM 95.0 °F 95.2 °F 60.8 °F 32% 29.86 in - East 9.2 mph - N/A   Clear
11:00 AM 96.8 °F - 50.0 °F 20% 29.86 in - East 10.4 mph - N/A   Clear
11:30 AM 98.6 °F - 44.6 °F 16% 29.83 in - East 11.5 mph - N/A   Clear
12:00 PM 99 °F - 46 °F 9% 29.84 in 11 mi ESE 11.5 mph - -   Scattered Clouds
12:00 PM 98.6 °F - 46.4 °F 17% 29.83 in - ESE 11.5 mph - N/A   Clear
12:30 PM 95.0 °F - 51.8 °F 23% 29.83 in - ESE 12.7 mph - N/A   Clear
1:00 PM 96.8 °F - 50.0 °F 20% 29.83 in - ESE 9.2 mph - N/A   Clear
1:30 PM 96.8 °F - 46.4 °F 18% 29.80 in - East 11.5 mph - N/A   Clear
2:00 PM 96.8 °F - 46.4 °F 18% 29.80 in - East 12.7 mph - N/A   Clear
2:30 PM 96.8 °F - 48.2 °F 19% 29.80 in - East 10.4 mph - N/A   Clear
3:00 PM 97 °F - 48 °F 11% 29.80 in 10 mi East 8.1 mph - -  
3:00 PM 96.8 °F - 48.2 °F 19% 29.80 in - East 8.1 mph - N/A   Clear
3:30 PM 95.0 °F - 51.8 °F 23% 29.77 in - East 8.1 mph - N/A   Clear
4:00 PM 95.0 °F - 50.0 °F 22% 29.80 in - East 6.9 mph - N/A   Clear
4:30 PM 93.2 °F - 51.8 °F 24% 29.80 in - East 9.2 mph - N/A   Clear
5:00 PM 91.4 °F 90.7 °F 59.0 °F 34% 29.80 in - East 6.9 mph - N/A   Clear
6:00 PM 89 °F - 69 °F 42% 29.81 in 9 mi East 5.8 mph - -   Clear
6:00 PM 89.6 °F 93.4 °F 68.0 °F 49% 29.80 in - East 5.8 mph - N/A   Clear
7:00 PM 86.0 °F 93.4 °F 73.4 °F 66% 29.80 in - ESE 4.6 mph - N/A   Clear
8:00 PM 86.0 °F 95.1 °F 75.2 °F 70% 29.80 in - ESE 5.8 mph - N/A   Clear
8:30 PM 86.0 °F 95.1 °F 75.2 °F 70% 29.80 in - ESE 5.8 mph - N/A   Clear
9:00 PM 86 °F - 76 °F 65% 29.84 in 7 mi SSE 4.6 mph - -   Clear
9:00 PM 86.0 °F 95.1 °F 75.2 °F 70% 29.83 in - SSE 4.6 mph - N/A   Clear
9:30 PM 86.0 °F 93.4 °F 73.4 °F 66% 29.83 in - SE 5.8 mph - N/A   Clear
10:00 PM 86.0 °F 93.4 °F 73.4 °F 66% 29.83 in - SSE 5.8 mph - N/A   Clear
10:30 PM 86.0 °F 90.4 °F 69.8 °F 58% 29.83 in - South 4.6 mph - N/A   Clear
11:00 PM 87.8 °F 91.4 °F 68.0 °F 52% 29.80 in - SSE 4.6 mph - N/A   Clear
11:30 PM 86.0 °F 90.4 °F 69.8 °F 58% 29.80 in - SSE 3.5 mph - N/A   Clear